Regional Weather Roundup
Issued by NWS

Home | Current Version | Previous Version | Graphics & Text | Print | Product List | Glossary On
Versions: 1 2 3 4 5 6 7 8 9 10 11 12 13 14 15 16 17 18 19 20 21 22 23 24 25 26 27 28 29 30 31 32 33 34 35 36 37 38 39 40 41 42 43 44 45 46 47 48 49 50
000
ASUS43 KMPX 271510
RWRMN
WEATHER ROUNDUP FOR MINNESOTA
NATIONAL WEATHER SERVICE TWIN CITIES/CHANHASSEN MN
900 AM CST FRI FEB 27 2015


NOTE: "FAIR" INDICATES FEW OR NO CLOUDS BELOW 12,000 FEET WITH NO
SIGNIFICANT WEATHER AND/OR OBSTRUCTIONS TO VISIBILITY. N/A MEANS
CURRENT SKY AND/OR WEATHER CONDITIONS ARE NOT AVAILABLE.

MNZ060>063-068>070-271600-
   Twin Cities Metro

CITY           SKY/WX    TMP DP  RH WIND       PRES   REMARKS
TWIN CITIES    SUNNY     -2  -8  76 SW3       30.56R
ST PAUL        SUNNY      1  -5  75 CALM      30.58R
CRYSTAL        SUNNY      2  -5  72 SW5       30.54R WCI  -8
BLAINE         SUNNY      3  -2  78 W5        30.53R WCI  -6
EDEN PRAIRIE   SUNNY     -3  -9  75 VRB5      30.55R WCI -13
SOUTH ST PAUL  SUNNY      2  -6  69 SW3       30.56R
LAKE ELMO      FAIR       3  -4  72 W7        30.55R WCI  -9
$$
MNZ001>005-007-008-013>017-022>024-027-028-271600-
   Northwest Minnesota

CITY           SKY/WX    TMP DP  RH WIND       PRES   REMARKS
BEMIDJI        MOSUNNY   -5 -10  80 SW3       30.39S
HALLOCK        MOSUNNY   -9 -17  70 S9        30.40S WCI -27
ROSEAU         MOSUNNY   -8 -15  71 SW7       30.37S WCI -22
WARROAD        MOSUNNY   -8 -13  77 SW7       30.36S WCI -22
THIEF RVR FALL MOSUNNY   -9 -24  49 SW8       30.41R WCI -26
CROOKSTON      MOSUNNY   -8 -13  77 SW8       30.47R WCI -23
FOSSTON        MOSUNNY   -8 -13  77 S9        30.42S WCI -25
DETROIT LAKES  MOSUNNY   -4  -8  84 S5        30.44S WCI -15
MOORHEAD       SUNNY     -4  -8  84 SW6       30.50S WCI -16
PARK RAPIDS    MOSUNNY   -6 -10  83 CALM      30.42R
MAHNOMEN       FAIR      -6 -10  81 S9        30.43S WCI -22
$$
MNZ006-009>011-018-025>026-271600-
   North Central Minnesota

CITY           SKY/WX    TMP DP  RH WIND       PRES   REMARKS
BAUDETTE       MOSUNNY   -9 -13  83 CALM      30.35S
FLAG ISLAND    MOSUNNY   -9 -15  77 S3        30.33F
INTL FALLS     PTSUNNY   -6 -12  75 W6        30.37S WCI -19
WASKISH        MOSUNNY   -4  -9  77 SW7       30.39R WCI -18
BIG FORK       MOSUNNY   -6 -11  77 SW3       30.38S
LONGVILLE      MOSUNNY   -6  -9  84 SW3       30.42S
GRAND RAPIDS   PTSUNNY   -2  -2 100 W3        30.39R
CRANE LAKE     MOSUNNY   -8 -13  77 CALM      30.40F
ORR            PTSUNNY   -6 -11  77 CALM      30.34S
COOK           MOSUNNY   -4 -11  71 CALM      30.37S
WALKER         FAIR      -2  -8  73 SW6       30.41S WCI -14
$$
MNZ012-019>021-037-271600-
   Northeast Minnesota

CITY           SKY/WX    TMP DP  RH WIND       PRES   REMARKS
DULUTH         MOSUNNY   -2 -10  69 W7        30.39S WCI -15
ELY            SUNNY     -8 -11  84 SW5       30.36S WCI -19
HIBBING        MOSUNNY   -3 -10  72 W5        30.39R WCI -13
EVELETH        MOSUNNY   -6 -13  71 SW5       30.39S WCI -17
DULUTH HARBOR  SUNNY      0  -9  65 CALM      30.49S
TWO HARBORS    FAIR       3  -8  60 NW5       30.39S WCI  -6
SILVER BAY     SUNNY      3  -9  55 CALM      30.37F
GRAND MARAIS     N/A      8 -10  43 NW9       30.40F WCI  -5
G MARAIS ARPRT MOSUNNY   -2 -15  55 CALM      30.27R
$$
MNZ029>031-032-039>041-046>048-054>057-064-271600-
   West Central Minnesota

CITY           SKY/WX    TMP DP  RH WIND       PRES   REMARKS
FERGUS FALLS   SUNNY     -6 -11  77 SW6       30.53S WCI -18
WHEATON        SUNNY     -8 -13  77 CALM      30.53S
MORRIS         SUNNY     -4  -9  77 CALM      30.50S
ALEXANDRIA     SUNNY     20 -10  26 W6        30.47R WCI  12
ELBOW LAKE     FAIR      -8 -12  83 S3        30.49R
WADENA         MOSUNNY   -6  -9  84 W5        30.44S WCI -17
GLENWOOD       SUNNY     -6  -8  92 W8        30.48S WCI -21
APPLETON       SUNNY     -2  -8  78 CALM      30.54R
BENSON         SUNNY     -2  -9  71 CALM      30.52R
ORTONVILLE       N/A     -2 -11  65 SW3       30.52R
MADISON        SUNNY      0  -8  71 W3        30.54R
WILLMAR        FAIR      -4  -9  77 SW6       30.53R WCI -16
$$
MNZ033>034-036-042>043-049>051-058-059-271600-
   Central Minnesota

CITY           SKY/WX    TMP DP  RH WIND       PRES   REMARKS
ST CLOUD       SUNNY     -1  -7  75 SW5       30.51R WCI -11
SAUK CENTRE    FAIR      -3  -8  79 W6        30.49S WCI -15
PAYNESVILLE    SUNNY     -4  -8  81 S5        30.51R WCI -15
AITKIN         MOSUNNY    0  -8  71 W6        30.44R WCI -12
PINE RIVER     MOSUNNY   -6  -9  84 CALM      30.46S
BRAINERD       SUNNY     -5 -10  79 SW7       30.46R WCI -19
STAPLES        SUNNY     -6  -8  92 W3        30.45S
LONG PRAIRIE   FAIR      -4  -8  84 S5        30.47S WCI -15
LITTLE FALLS   SUNNY     -2  -8  78 CALM      30.49S
LITCHFIELD     SUNNY     -2  -8  78 CALM      30.53R
BUFFALO        SUNNY      0  -8  71 CALM      30.54R
MAPLE LAKE     SUNNY      1  -5  77 W3        30.53S
$$
MNZ037-044-045-052-053-271600-
   East Central Minnesota

CITY           SKY/WX    TMP DP  RH WIND       PRES   REMARKS
PRINCETON      SUNNY      1  -6  71 CALM      30.51R
MORA           SUNNY     -2  -9  71 CALM      30.51S
CAMBRIDGE      SUNNY      0  -9  65 CALM      30.50S
RUSH CITY      SUNNY     -1  -8  72 W3        30.52S
MOOSE LAKE     SUNNY      0  -9  65 CALM      30.45S
HINCKLEY       FAIR       0  -8  71 W5        30.49S WCI -10
CLOQUET        SUNNY     -2  -9  71 W3        30.41S
MCGREGOR       MOSUNNY    0  -6  78 CALM      30.45R
$$
MNZ071>073-080-081-089-090-097-098-271600-
   Southwest Minnesota

CITY           SKY/WX    TMP DP  RH WIND       PRES   REMARKS
MONTEVIDEO     SUNNY      0  -8  71 W5        30.55R WCI -10
GRANITE FALLS  SUNNY     -4 -10  75 SW6       30.56S WCI -17
CANBY          SUNNY      2  -6  70 W8        30.53S WCI -12
MARSHALL       SUNNY      0  -9  65 W7        30.54R WCI -13
REDWOOD FALLS  SUNNY     -3 -11  68 W6        30.56R WCI -15
OLIVIA         SUNNY     -4  -8  84 W5        30.54S WCI -15
PIPESTONE      SUNNY     -8 -11  84 SW5       30.49R WCI -19
WINDOM         SUNNY     -6  -9  84 CALM      30.53R
WORTHINGTON    SUNNY     21 -17  18 W7        30.53S WCI  13
JACKSON        SUNNY     -4  -9  77 W5        30.52S WCI -15
TRACY          SUNNY     -1  -8  71 SW8       30.52S WCI -15
SLAYTON        SUNNY     -2  -9  72 CALM      30.51R
$$
MNZ065>067-074>077-082>085-091>093-271600-
   South Central Minnesota

CITY           SKY/WX    TMP DP  RH WIND       PRES   REMARKS
MANKATO        SUNNY     -6 -15  65 W6        30.56R WCI -18
NEW ULM        SUNNY     -8 -13  77 W5        30.56S WCI -19
ST JAMES       SUNNY     -4 -11  71 SW7       30.57S WCI -18
FAIRMONT       SUNNY     -2  -8  78 W6        30.54R WCI -14
GLENCOE        SUNNY     -3  -8  79 SW6       30.55R WCI -15
FARIBAULT      SUNNY     -8 -11  84 CALM      30.55R
OWATONNA       SUNNY     -8 -13  77 SW3       30.55R
WASECA         SUNNY     -9 -13  84 SW3       30.57R HAZE
ALBERT LEA     SUNNY     -6  -9  84 W3        30.53S
$$
MNZ078>079-086>088-094>096-271600-
   Southeast Minnesota

CITY           SKY/WX    TMP DP  RH WIND       PRES   REMARKS
ROCHESTER      SUNNY     -8 -13  78 W8        30.52R WCI -24
RED WING       SUNNY     -2  -8  78 W3        30.57R
STANTON        SUNNY     -3 -10  74 SW3       30.55S
DODGE CENTER   MOSUNNY   -6  -9  84 W5        30.51R WCI -17
WINONA         SUNNY     -2  -9  71 CALM      30.61R
AUSTIN         MOSUNNY   -6  -9  84 CALM      30.53S
PRESTON        MOSUNNY   -8 -13  79 W6        30.53S WCI -21
$$
ABBREVIATIONS USED IN REMARKS
   TC - TEMPERATURES IN CELSIUS
  WCI - WIND CHILL INDEX
   HX - HEAT INDEX
  VSB - VISIBILITY
$$


USA.gov is the U.S. government's official web portal to all federal, state and local government web resources and services.